Location: Betzi
(47.2343°N, 9.5260°E)
Time: 22:54:11
(UTC+00:00)

COSMOS 2455 - Pass Details

Date: 27 May 2022
Orbit: 901 x 908 km, 67.1° (Epoch: 29 June)

Event Time Altitude Azimuth Distance (km) Brightness Sun altitude
Exits shadow 00:25:39 16° 142° (SE) 2,169 4.5 -19.9°
Maximum altitude 00:28:27 22° 106° (ESE) 1,855 4.5 -19.7°
Drops below altitude 10° 00:32:58 10° 57° (ENE) 2,598 5.9 -19.5°
Sets 00:35:59 0° 44° (NE) 3,545 7.1 -19.3°
